Location: Bergnershof
(48.9468°N, 10.9431°E)
Time: 22:47:46
(UTC+00:00)

Cosmos 1844 Rocket - Pass Details

Date: 16 June 2021
Orbit: 823 x 846 km, 71.0° (Epoch: 30 July)

Event Time Altitude Azimuth Distance (km) Brightness Sun altitude
Rises 20:34:10 0° 332° (NNW) 3,411 8.0 -9.1°
Reaches altitude 10° 20:36:38 10° 333° (NNW) 2,475 6.7 -9.3°
Maximum altitude 20:42:20 80° 61° (ENE) 866 2.8 -9.9°
Enters shadow 20:47:23 13° 148° (SSE) 2,232 4.2 -10.3°
